Mobridge, SD

4:33 AM CST on January 16, 2018 (GMT -0600)
Mobridge Municipal

Weather History for KMBG - January, 2014

Change the Weather History Date:

Saturday, January 11, 2014

  Actual Average Record
Temperature  
Mean Temperature 24 °F 16 °F  
Max Temperature 35 °F 25 °F 57 °F (1987)
Min Temperature 12 °F 6 °F -27 °F (1918)
Degree Days  
Heating Degree Days 41 49  
Month to date heating degree days 625 539  
Since 1 July heating degree days 4123 3755  
Cooling Degree Days 0 0  
Month to date cooling degree days 0 0  
Year to date cooling degree days 0 0  
Moisture  
Dew Point 20 °F    
Average Humidity 78    
Maximum Humidity 92    
Minimum Humidity 63    
Precipitation  
Precipitation T in 0.01 in 0.27 in (2013)
Month to date precipitation 0.05 0.13  
Year to date precipitation 0.05 0.13  
Snow  
Snow 0.00 in - - ()
Month to date snowfall 1.9  
Since 1 July snowfall 19.9  
Snow Depth 4.00 in    
Sea Level Pressure  
Sea Level Pressure 29.63 in    
Wind  
Wind Speed 8 mph (South)    
Max Wind Speed 17 mph    
Max Gust Speed 22 mph    
Visibility 10 miles    
Events      
T = Trace of Precipitation, MM = Missing Value Source: NWS Daily Summary

Daily Weather History Graph

Daily Weather History Graph

Search for Another Location

Airport or City:

Trip Planner

Search our weather history database for the weather conditions in past years. The results will help you decide how hot, cold, wet, or windy it might be!

Date:

Astronomy

Jan. 11, 2014 Rise Set
Actual Time 8:20 AM CST 5:19 PM CST
Civil Twilight 7:46 AM CST 5:53 PM CST
Nautical Twilight 7:09 AM CST 6:30 PM CST
Astronomical Twilight 6:33 AM CST 7:05 PM CST
Moon 2:07 PM CST (1/11) 4:23 AM CST (1/11)
Length of Visible Light 10h 06m
Length of Day
8h 59m
Waxing Gibbous, 83% of the Moon is Illuminated
Jan 11
Waxing Gibbous
Jan 15
Full
Jan 23
Last Quarter
Jan 30
New
Feb 6
First Quarter

Hourly Weather History & Observations

Time (CST) Temp. Windchill Dew Point Humidity Pressure Visibility Wind Dir Wind Speed Gust Speed Precip Events Conditions
12:52 AM 23.0 °F 13.1 °F 18.0 °F 81% 29.63 in 10.0 mi NNW 9.2 mph - N/A   Clear
1:52 AM 21.9 °F 14.5 °F 17.1 °F 82% 29.65 in 10.0 mi NNW 5.8 mph - N/A   Clear
2:52 AM 21.0 °F 8.6 °F 16.0 °F 81% 29.68 in 10.0 mi NW 12.7 mph - N/A   Clear
3:52 AM 19.9 °F 7.9 °F 16.0 °F 85% 29.71 in 10.0 mi NW 11.5 mph - N/A   Clear
4:52 AM 19.9 °F 6.2 °F 16.0 °F 85% 29.73 in 10.0 mi NW 15.0 mph - N/A   Clear
5:52 AM 18.0 °F 9.8 °F 14.0 °F 84% 29.75 in 10.0 mi NNW 5.8 mph - N/A   Clear
6:52 AM 14.0 °F 8.2 °F 10.9 °F 88% 29.79 in 10.0 mi SSE 3.5 mph - N/A   Clear
7:52 AM 16.0 °F - 14.0 °F 92% 29.79 in 10.0 mi Calm Calm - N/A   Clear
8:52 AM 16.0 °F 6.3 °F 12.0 °F 84% 29.79 in 10.0 mi NNW 6.9 mph - N/A   Clear
9:52 AM 21.9 °F 12.5 °F 15.1 °F 75% 29.79 in 10.0 mi NNW 8.1 mph - N/A   Clear
10:52 AM 23.0 °F - 17.1 °F 78% 29.80 in 10.0 mi Calm Calm - N/A   Clear
11:52 AM 26.1 °F - 19.0 °F 75% 29.77 in 10.0 mi Calm Calm - N/A   Clear
12:52 PM 30.0 °F - 19.9 °F 66% 29.72 in 10.0 mi Calm Calm - N/A   Partly Cloudy
1:52 PM 32.0 °F 26.4 °F 21.9 °F 66% 29.68 in 10.0 mi South 5.8 mph - N/A   Clear
2:52 PM 34.0 °F 27.2 °F 23.0 °F 64% 29.65 in 10.0 mi South 8.1 mph - N/A   Clear
3:52 PM 32.0 °F 23.6 °F 24.1 °F 73% 29.62 in 10.0 mi SE 10.4 mph - N/A   Clear
4:52 PM 30.0 °F 19.5 °F 24.1 °F 79% 29.58 in 10.0 mi SSE 13.8 mph - N/A   Clear
5:52 PM 28.0 °F 18.1 °F 23.0 °F 81% 29.56 in 10.0 mi SSE 11.5 mph - N/A   Clear
6:52 PM 27.0 °F 18.7 °F 21.9 °F 81% 29.52 in 10.0 mi SSE 8.1 mph - N/A   Clear
7:52 PM 28.0 °F 17.5 °F 23.0 °F 81% 29.47 in 10.0 mi SSE 12.7 mph - N/A   Clear
8:52 PM 30.0 °F 20.5 °F 23.0 °F 75% 29.42 in 10.0 mi SSE 11.5 mph - N/A   Clear
9:52 PM 33.1 °F 22.2 °F 25.0 °F 72% 29.37 in 10.0 mi SSE 17.3 mph - N/A   Clear
10:52 PM 33.1 °F 24.4 °F 26.1 °F 75% 29.36 in 10.0 mi SSE 11.5 mph - N/A   Mostly Cloudy
11:52 PM 34.0 °F 26.6 °F 28.0 °F 79% 29.33 in 10.0 mi SSE 9.2 mph - 0.00 in   Overcast